Regional Weather Roundup
Issued by NWS

Home | Current Version | Previous Version | Text Only | Print | Product List | Glossary On
Versions: 1 2 3 4 5 6 7 8 9 10 11 12 13 14 15 16 17 18 19 20 21 22 23 24 25 26 27 28 29 30 31 32 33 34 35 36 37 38 39 40 41 42 43 44 45 46 47 48 49 50
862
ASUS43 KBIS 211810
RWRND

NORTH DAKOTA REGIONAL WEATHER ROUNDUP
NATIONAL WEATHER SERVICE BISMARCK ND
100 PM CDT WED AUG 21 2019

NOTE: "FAIR" INDICATES FEW OR NO CLOUDS BELOW 12,000 FEET WITH NO
SIGNIFICANT WEATHER AND/OR OBSTRUCTIONS TO VISIBILITY.


NDZ001>003-009>011-017-211900-
NORTHWEST NORTH DAKOTA

CITY           SKY/WX    TMP DP  RH WIND       PRES   REMARKS
WILLISTON      SUNNY     72  47  40 S9        30.18F
6HR MIN TEMP:  46; 6HR MAX TEMP:  73;

MINOT          SUNNY     72  45  37 VRB5      30.18F
MINOT AFB      SUNNY     71  45  39 CALM      30.16
$$

NDZ018>021-031>035-040>046-211900-
SOUTHWEST NORTH DAKOTA

CITY           SKY/WX    TMP DP  RH WIND       PRES   REMARKS
BISMARCK       SUNNY     72  47  40 SE5       30.18F
6HR MIN TEMP:  55; 6HR MAX TEMP:  72;

DICKINSON      SUNNY     74  46  36 SE7       30.17F
GARRISON         N/A     69  46  43 SE7       30.19F
6HR MIN TEMP:  46; 6HR MAX TEMP:  69;

HETTINGER ARPT SUNNY     72  54  53 SE7       30.18F
$$

NDZ004>008-012>016-024-026-027-054-211900-
NORTHEAST NORTH DAKOTA

CITY           SKY/WX    TMP DP  RH WIND       PRES   REMARKS
GRAND FORKS    MOSUNNY   70  47  43 W5        30.12F
DEVILS LAKE    SUNNY     67  43  41 NW9       30.16F
$$

NDZ022-023-025-028>030-036>039-047>053-211900-
SOUTHEAST NORTH DAKOTA

CITY           SKY/WX    TMP DP  RH WIND       PRES   REMARKS
FARGO          SUNNY     71  50  47 NW7       30.12F
6HR MIN TEMP:  50; 6HR MAX TEMP:  71;

JAMESTOWN      SUNNY     69  48  47 NW10      30.15F
$$





USA.gov is the U.S. government's official web portal to all federal, state and local government web resources and services.